Theta_e
327 326 325 325 324 323 323 322 321 321 320 319 319 318 317 317 316 316 316 316 315 315 315 315 315 315 315 314 314 314 314 313 313 312 311 311 311 311 311 311 311 311 312 312 310 308 306 304 302 300 300 301 302 302 303 305 307 307 307 307 307 308 308 310 313 312 309 308 308 307 307 307 307 308 310 310 309 309 309 310 310 311 312 312 314
324 324 323 323 322 321 321 320 319 319 318 318 317 317 316 316 315 315 315 314 314 314 314 314 314 314 314 313 313 313 313 312 312 311 311 311 310 310 310 309 309 310 310 310 308 307 304 302 300 300 301 302 303 304 304 305 306 306 307 306 307 308 309 309 311 311 309 308 307 306 306 306 306 307 307 307 306 306 306 307 307 307 308 308 309
323 323 322 321 320 319 319 318 318 318 317 316 316 315 315 315 314 314 314 313 313 313 314 314 313 313 312 311 311 313 312 311 311 311 311 310 309 308 308 307 307 307 307 306 305 304 302 300 300 301 302 303 303 304 304 304 305 306 307 307 308 309 310 310 310 310 309 308 307 306 306 306 306 306 306 306 305 304 305 305 305 305 305 306 306
321 321 320 319 318 318 317 317 317 316 316 315 315 314 314 314 314 313 313 313 312 312 313 312 312 310 310 310 310 311 311 311 310 310 310 309 307 306 306 305 305 305 305 304 303 301 300 300 301 301 301 302 302 303 304 304 304 305 306 308 309 308 308 308 308 308 308 307 306 306 306 306 306 306 305 305 304 304 304 304 304 304 304 304 304
320 319 318 318 317 317 316 316 315 315 314 314 314 313 313 313 313 312 312 312 311 311 310 310 309 309 309 309 310 310 311 310 310 309 308 307 306 305 304 303 303 303 303 302 300 300 300 300 300 300 301 301 302 302 303 303 304 304 305 307 308 308 307 306 306 306 306 306 306 305 306 306 306 306 305 305 304 303 304 303 303 303 303 303 303
318 318 317 317 316 316 315 315 315 314 314 314 314 313 313 313 312 312 311 311 311 309 308 308 308 308 309 309 310 310 310 310 309 308 307 307 306 304 301 300 301 301 300 300 299 299 300 300 300 300 300 301 301 301 302 302 302 303 304 305 307 307 306 305 304 304 304 304 304 305 305 306 306 305 305 304 303 303 303 303 302 302 302 302 303
317 317 317 316 315 315 315 314 314 314 313 313 313 312 313 312 311 311 311 311 310 308 307 307 307 308 308 309 310 310 309 309 308 307 307 306 304 301 299 299 299 299 299 299 299 299 299 299 300 300 300 300 301 301 301 301 301 302 303 303 304 304 304 303 303 302 302 303 303 303 304 305 305 305 304 303 303 303 303 302 302 302 302 302 302
316 316 315 315 314 314 313 313 313 313 313 313 313 312 313 312 311 310 310 309 308 307 307 307 307 307 308 309 309 309 308 307 307 307 306 304 300 298 299 299 298 298 298 298 298 298 298 299 299 300 300 300 301 301 301 301 301 301 302 302 303 303 302 302 302 302 302 302 302 302 302 303 303 303 303 302 302 302 302 302 301 301 301 301 301
316 316 314 314 313 313 313 312 312 312 313 312 312 312 312 311 310 309 308 307 306 306 306 306 306 307 307 308 309 308 308 307 306 306 304 301 298 297 298 298 298 298 298 297 297 297 297 298 298 299 300 300 300 300 300 300 300 300 300 300 301 301 302 302 302 302 301 301 301 301 301 301 301 301 301 301 302 302 301 301 301 301 301 301 301
316 315 314 313 312 312 313 312 312 312 312 311 311 311 311 310 309 308 307 305 305 305 305 305 306 306 307 308 308 308 307 306 305 304 303 299 297 297 298 298 298 298 297 297 297 297 297 297 297 298 299 300 300 300 300 300 299 300 300 300 300 300 300 300 301 301 301 301 301 301 300 300 300 300 300 300 300 300 300 300 300 300 300 301 301
315 314 313 313 312 312 312 311 311 312 312 311 310 310 309 309 308 307 306 305 304 304 305 305 305 306 307 307 308 307 306 305 303 303 302 300 297 297 297 297 297 297 297 297 297 297 297 297 297 298 299 299 300 300 300 300 300 300 299 299 299 299 299 299 299 300 300 300 300 300 300 299 299 299 299 299 299 299 299 299 300 300 300 301 301
314 313 313 312 312 311 310 310 311 312 311 310 310 309 309 308 307 306 305 304 303 302 303 305 305 305 306 307 307 307 305 304 303 302 302 301 298 297 297 297 297 297 297 297 297 297 297 297 297 297 298 299 299 299 300 300 300 300 300 300 300 299 299 299 299 299 299 299 299 299 299 299 299 298 298 298 298 298 298 299 299 299 300 300 301
313 312 312 311 311 311 311 311 312 311 311 310 309 309 308 308 307 306 305 304 301 300 302 304 304 305 306 306 307 306 305 304 303 302 302 301 300 298 298 297 297 297 297 297 297 297 297 297 297 297 298 299 299 299 299 299 300 300 300 300 300 300 300 299 299 299 299 299 298 298 298 298 298 298 298 297 297 297 298 298 299 299 299 300 300
312 311 311 311 311 311 311 312 311 310 310 310 310 309 308 307 306 305 304 302 300 300 302 303 304 304 305 306 306 306 305 303 302 302 302 301 301 300 299 298 297 297 297 297 297 297 297 297 297 297 298 299 299 299 299 299 299 299 299 299 300 300 300 300 299 299 299 298 298 298 297 297 297 297 297 297 297 297 297 298 298 298 298 299 299
311 311 311 310 311 311 311 311 311 310 310 310 309 308 307 306 304 303 301 299 299 300 301 302 303 304 304 305 306 306 304 303 303 303 302 301 301 300 299 298 297 297 297 297 297 297 297 297 297 297 297 298 299 299 298 298 298 298 298 298 298 299 300 300 299 298 298 298 298 298 297 296 296 296 296 296 296 296 296 297 297 297 297 297 298
311 311 311 311 311 311 311 311 311 310 310 309 309 308 306 304 303 301 298 297 298 300 301 302 303 303 304 305 305 305 304 303 303 303 303 302 301 299 297 297 297 297 297 297 297 297 297 297 297 297 297 298 298 298 298 297 297 297 297 297 297 298 299 299 299 298 298 298 298 298 297 297 296 296 295 295 295 295 295 296 295 295 296 296 297
311 311 311 311 311 311 311 311 310 309 309 308 308 307 306 304 303 301 297 296 297 298 300 301 302 302 303 304 304 304 303 303 302 302 302 302 300 298 297 297 297 298 298 297 297 297 297 297 297 297 297 297 297 298 297 297 296 297 297 297 297 298 298 298 298 298 298 298 298 298 297 297 296 295 295 295 295 294 294 294 294 294 294 295 296
311 311 311 311 311 311 311 310 310 309 309 308 307 307 305 304 303 301 296 294 295 297 298 300 301 302 302 302 302 302 301 302 301 300 300 300 298 297 297 298 298 298 298 297 297 297 297 297 297 297 297 296 296 297 297 296 296 296 296 296 296 297 298 298 298 298 298 298 298 298 297 297 296 295 295 294 294 294 294 294 293 293 293 294 294
311 311 311 311 311 311 310 310 309 309 309 308 307 306 305 304 304 300 295 294 296 296 296 297 298 299 300 300 301 300 300 300 300 299 298 298 297 297 298 298 298 298 298 297 297 297 297 297 297 297 296 296 296 296 296 295 295 295 295 295 295 296 297 298 298 298 298 298 298 297 297 297 296 295 295 294 294 294 293 293 293 292 293 293 293
311 311 311 311 310 310 310 309 309 308 307 307 306 305 305 304 302 297 294 295 297 297 296 296 297 297 298 298 299 299 299 299 298 298 298 297 297 298 298 298 298 298 298 297 297 297 297 297 297 297 296 296 296 296 296 295 295 295 295 295 295 295 297 298 298 298 298 297 297 297 297 297 296 295 295 294 294 294 293 293 293 292 292 292 292
311 310 310 310 310 310 309 308 308 307 306 305 304 304 303 301 298 296 296 298 298 298 298 297 297 297 297 297 297 297 298 298 298 298 298 297 298 298 298 298 298 298 298 297 297 297 297 297 296 296 296 296 296 296 296 295 295 295 295 295 295 295 296 297 297 298 297 297 297 297 297 297 296 295 295 295 294 294 294 293 293 293 292 292 292
310 310 310 309 309 309 308 307 306 306 305 303 301 299 298 297 298 299 300 300 300 299 299 298 298 298 297 297 297 297 297 297 297 297 297 297 298 298 298 298 298 298 298 297 297 297 297 297 296 296 296 295 295 295 296 295 295 294 294 295 295 296 296 297 297 297 297 297 296 297 297 297 296 295 295 295 295 294 294 294 293 293 293 293 292
310 309 309 308 308 308 307 307 306 306 305 304 302 300 299 300 301 302 301 301 301 300 299 298 298 298 297 297 297 297 297 297 297 297 297 297 297 298 298 297 297 298 298 297 297 297 297 297 296 296 296 295 295 295 295 295 295 294 294 295 295 295 296 296 297 297 297 296 296 296 297 297 296 295 295 295 295 295 295 294 294 294 293 293 293
309 309 308 308 308 308 307 307 306 306 305 304 303 302 302 303 303 302 302 302 301 300 299 299 299 298 297 297 297 297 297 297 297 297 297 297 297 297 297 297 297 297 298 297 297 297 297 297 297 296 296 295 295 295 295 295 295 295 294 294 294 295 295 296 296 297 296 296 295 296 297 297 296 295 295 295 295 295 295 295 295 294 294 294 293
309 308 308 307 307 307 307 306 306 306 305 305 304 303 303 303 303 303 303 302 302 301 300 300 300 299 297 296 296 296 296 297 296 296 297 297 297 297 297 297 297 297 297 297 297 297 297 297 297 296 296 295 295 294 294 295 295 294 294 294 294 294 294 295 295 296 296 295 295 295 297 297 296 296 295 295 296 296 296 295 295 295 295 295 294
308 307 307 306 306 306 306 305 305 305 305 305 304 303 303 304 303 304 303 303 302 302 301 300 299 298 296 295 294 295 296 296 296 296 296 297 296 296 297 297 297 297 297 297 297 297 297 297 296 296 295 295 295 294 294 294 294 294 294 294 294 294 294 294 294 295 295 295 295 295 297 297 297 296 296 296 296 296 295 295 295 295 295 295 295
306 306 306 306 305 305 305 305 305 304 304 304 304 303 303 303 303 303 303 303 302 301 299 298 297 295 294 292 292 293 294 295 295 295 296 296 296 296 296 297 297 297 297 297 297 296 296 296 296 296 295 295 294 294 293 293 294 294 294 294 294 294 294 294 294 294 294 295 295 296 297 297 297 297 296 296 296 295 295 295 295 295 295 295 294
306 306 306 305 305 305 305 305 304 304 304 303 303 303 303 303 303 303 302 302 301 299 298 297 297 295 293 291 291 293 294 295 295 296 296 296 296 296 296 296 296 296 296 297 296 296 296 295 295 295 294 294 294 294 294 293 293 293 294 294 294 294 294 294 294 294 294 294 295 296 297 297 297 297 297 296 296 296 296 296 295 295 295 295 294
305 305 305 305 305 305 304 304 304 303 303 303 303 303 303 303 303 303 302 301 300 299 298 298 297 296 293 291 292 293 294 295 295 296 296 296 296 296 296 296 296 296 296 296 296 296 295 295 294 294 294 294 293 293 294 293 293 293 293 293 293 294 293 294 294 294 294 294 294 295 296 296 296 297 297 296 296 296 296 296 295 295 295 294 294
305 305 305 304 304 304 304 303 303 303 302 302 302 301 301 301 302 302 302 301 300 299 299 298 298 296 293 291 291 293 294 295 295 296 296 296 296 296 296 296 296 296 296 296 296 295 295 295 294 294 294 293 293 293 293 293 293 293 292 292 293 293 293 293 293 293 294 294 294 294 295 296 296 296 296 296 296 296 296 296 295 295 295 295 294
304 304 304 304 303 303 303 302 302 302 302 301 301 300 299 299 299 300 300 300 299 299 299 299 298 295 292 291 292 294 295 295 295 295 296 296 296 296 296 296 296 296 296 296 296 295 295 295 294 294 294 293 293 292 292 293 293 293 292 292 292 293 293 293 293 293 293 293 293 293 294 295 296 296 296 296 296 296 296 296 296 296 295 295 294
304 303 303 303 303 303 302 302 301 301 301 301 301 300 298 297 296 296 296 297 297 298 298 297 295 293 291 292 293 295 295 295 295 295 296 296 296 296 296 297 297 296 296 296 296 295 295 295 295 294 294 293 293 293 293 292 292 292 292 292 292 292 292 292 293 293 293 293 293 293 293 294 295 295 296 296 295 295 296 296 296 296 296 296 295
303 302 302 302 302 302 302 302 302 301 301 300 300 300 299 298 296 294 293 293 293 293 293 293 292 291 291 292 294 295 295 295 295 296 296 296 297 297 297 297 296 296 296 296 296 296 296 295 295 295 294 294 293 293 293 292 292 292 292 292 291 292 292 292 292 293 293 292 292 292 292 293 293 294 295 296 295 295 295 295 296 296 296 296 295
303 302 302 302 302 302 302 302 302 301 301 301 300 300 300 299 297 294 292 292 292 291 291 292 292 292 292 292 293 294 295 295 296 296 297 297 297 297 297 296 296 296 296 296 296 296 296 296 295 295 295 294 294 294 293 293 292 292 292 291 291 291 292 292 292 292 292 292 292 292 292 292 292 292 293 294 295 295 295 295 295 295 296 296 296
302 302 302 302 302 302 302 302 302 302 301 301 301 300 299 299 296 293 292 292 292 292 292 292 292 292 292 292 293 294 295 296 296 296 297 297 297 297 297 296 296 296 297 296 296 296 296 296 295 295 295 295 294 294 294 293 293 292 292 292 291 291 291 292 292 292 292 292 292 292 292 292 292 292 292 292 293 294 295 295 295 295 295 295 296
302 301 301 301 301 301 301 301 301 300 300 300 300 299 298 296 294 292 292 292 292 292 292 293 293 293 293 293 293 295 296 296 296 297 297 297 297 297 297 296 296 296 297 296 296 296 296 295 295 295 295 295 295 295 294 294 294 293 292 292 292 292 292 292 292 292 292 292 292 292 292 292 292 292 292 292 292 292 293 294 294 295 295 295 296
302 301 301 301 301 300 299 299 299 298 299 299 298 296 295 293 292 292 292 292 293 294 294 295 295 295 295 295 295 296 296 297 297 297 297 297 297 297 297 296 296 296 297 296 296 296 296 296 295 295 295 295 295 295 295 294 294 294 293 293 293 293 293 292 292 292 292 292 292 291 291 292 292 291 292 292 291 291 291 292 292 293 293 294 295
302 302 302 301 301 299 298 297 296 296 296 295 294 293 292 292 292 292 293 294 295 296 296 297 297 297 297 298 298 298 298 298 298 297 297 297 297 297 297 297 297 297 297 297 297 296 296 296 295 295 295 295 295 295 295 295 295 295 294 294 294 294 293 293 293 292 292 292 292 292 291 291 291 291 291 292 291 291 291 291 291 291 291 292 292
302 302 302 301 300 298 296 294 293 293 293 292 292 292 292 292 293 294 294 295 296 297 297 298 298 298 298 298 298 298 297 297 298 298 298 298 297 297 297 297 297 297 297 297 297 297 296 296 296 296 295 295 295 295 296 296 296 295 295 295 295 295 294 294 294 294 293 292 292 292 292 292 291 291 291 291 291 291 291 291 291 291 291 291 291
302 301 300 299 297 296 294 292 292 292 292 292 292 292 294 295 296 296 296 297 297 297 297 298 298 299 299 298 297 297 297 297 297 296 297 298 298 298 298 297 297 297 297 297 297 297 297 297 297 296 296 296 295 295 295 295 295 296 296 295 295 296 295 295 295 295 294 293 292 292 292 292 292 292 292 292 291 291 291 291 291 291 291 291 291
300 299 298 296 295 293 293 293 293 293 293 294 294 294 296 297 298 297 298 298 298 298 298 298 298 299 299 299 298 298 298 298 297 296 295 297 298 298 298 298 298 297 297 297 297 297 297 297 297 297 297 296 296 296 295 295 295 295 295 295 295 295 296 295 295 295 295 295 294 293 293 293 292 292 292 292 292 291 291 291 291 291 291 291 291
299 298 296 295 294 294 294 295 295 295 296 296 297 297 298 298 298 298 299 299 299 299 298 298 299 299 300 300 299 298 298 298 298 296 295 296 298 298 298 298 298 298 298 298 298 298 298 297 297 297 297 297 296 296 296 296 296 295 295 295 294 294 294 295 295 295 295 295 295 294 294 294 293 293 292 292 292 292 292 292 292 291 291 291 291
298 297 296 296 296 296 296 297 296 296 297 297 298 298 299 299 299 299 299 299 299 299 299 299 299 300 300 300 299 298 298 299 298 298 297 297 298 299 299 299 298 298 297 298 298 298 298 297 297 297 297 297 296 296 296 296 296 296 296 295 295 294 294 294 294 295 295 295 295 295 295 294 294 294 294 293 293 293 292 292 292 292 291 291 291
299 298 297 297 297 297 297 297 297 297 298 298 299 299 299 299 299 299 299 299 299 299 299 299 299 299 300 299 299 298 299 299 299 299 299 299 299 299 299 298 298 297 297 297 298 298 298 298 297 297 297 297 297 297 297 296 296 296 296 296 296 295 295 295 294 294 294 295 295 295 295 295 295 294 294 294 294 293 293 292 292 292 291 291 291
300 300 299 299 299 298 298 298 298 298 299 299 299 299 299 299 299 299 299 299 299 299 300 300 299 299 299 299 299 299 299 299 299 299 299 300 299 299 299 298 298 297 297 297 297 297 297 297 297 297 297 297 297 297 297 297 297 297 296 296 296 296 296 296 295 295 295 294 294 295 295 295 295 295 294 294 294 294 293 293 292 292 292 292 292
301 301 300 300 300 300 300 300 300 300 299 299 300 300 299 299 300 300 300 300 300 300 300 299 299 299 299 299 299 299 299 300 299 299 299 299 299 299 299 299 298 298 298 298 297 297 297 297 297 297 297 297 297 298 298 298 297 297 297 297 296 297 296 296 296 296 295 295 295 295 295 295 294 294 294 294 294 294 294 293 293 292 292 292 292
301 301 300 300 300 300 300 300 300 300 300 300 300 299 299 299 300 300 300 300 300 300 300 300 300 300 300 300 300 300 299 299 299 299 299 299 299 299 299 299 299 299 298 298 298 298 297 297 297 297 297 297 298 298 298 298 298 298 297 297 297 297 297 297 296 296 296 296 295 295 295 295 295 295 294 294 294 294 294 294 293 293 292 292 292
301 301 301 301 300 300 300 300 300 300 300 299 299 299 299 299 299 300 300 300 300 300 300 300 300 300 300 300 300 300 299 299 299 299 299 300 299 299 299 299 299 299 299 298 298 298 298 298 298 297 297 298 298 298 298 298 298 298 298 297 297 297 297 297 297 296 296 296 296 296 295 295 295 295 295 295 294 294 294 294 293 293 293 292 292
301 301 301 301 300 300 300 300 300 300 299 299 300 300 299 299 299 300 300 300 300 300 300 300 300 300 300 300 300 300 300 300 300 300 300 300 300 300 300 299 299 299 299 299 299 298 298 298 298 297 298 298 298 298 298 297 297 297 297 297 297 297 297 297 296 296 296 296 296 296 296 296 295 295 295 295 295 295 294 294 294 294 293 293 293
300 300 300 300 300 300 300 300 300 300 300 300 300 300 300 300 300 300 300 300 300 300 300 300 300 300 300 300 300 300 300 300 300 300 300 300 300 300 299 299 299 299 299 298 298 298 298 298 298 298 298 297 297 297 297 297 297 297 297 297 297 297 297 296 296 296 296 296 296 295 295 295 295 296 295 295 295 295 295 295 295 294 294 294 294
299 299 299 299 299 299 299 299 300 300 300 300 300 300 300 300 300 300 300 300 300 300 300 300 300 300 300 300 300 300 300 300 300 300 300 300 299 299 299 299 299 299 298 298 298 298 298 298 298 298 298 298 297 297 298 297 297 297 297 297 297 297 297 297 296 296 296 296 296 295 295 295 295 295 295 295 295 295 295 295 295 295 294 294 294
Wind_Speed
30 29 27 25 24 22 21 21 20 19 18 17 17 17 16 16 16 15 16 15 14 14 15 14 13 12 11 11 12 14 16 17 17 18 18 18 18 17 16 16 18 19 19 19 18 17 20 21 21 21 20 20 20 19 18 17 15 15 15 15 16 16 17 16 9 8 18 21 20 24 25 25 25 24 24 27 30 30 29 29 28 27 27 26 25
29 28 27 25 24 23 22 21 20 19 18 17 16 16 15 14 14 15 15 14 13 14 14 13 11 9 9 10 12 15 17 17 18 20 20 20 19 18 18 17 18 19 20 20 18 17 20 22 22 22 21 21 21 20 20 20 19 19 19 18 18 18 17 16 13 9 15 21 22 24 26 25 25 25 24 26 31 33 32 31 30 29 29 29 28
29 28 27 27 26 25 24 22 20 19 19 17 16 14 12 13 14 15 14 14 15 15 13 11 9 8 10 13 15 17 18 18 19 20 20 21 20 19 18 18 19 20 20 20 19 18 20 22 23 23 22 23 23 22 22 22 22 22 22 21 19 18 17 16 15 13 13 18 21 24 26 25 24 24 24 26 29 31 32 32 31 31 30 30 31
28 28 29 28 27 26 24 23 21 20 19 17 16 14 13 15 16 14 13 15 16 15 12 10 9 11 14 17 18 19 19 18 18 19 20 21 20 19 18 18 19 19 19 19 19 20 21 22 23 24 24 25 24 24 24 23 24 23 23 22 18 17 18 18 16 16 15 17 20 22 24 24 24 23 24 28 31 31 30 30 31 32 32 31 31
29 29 29 28 26 25 23 22 21 19 18 17 16 16 18 18 15 15 17 18 16 14 13 13 14 17 19 20 20 20 19 18 19 21 21 20 20 19 18 18 19 19 19 20 21 23 23 23 24 25 26 26 25 25 24 24 24 24 24 22 18 16 17 18 17 17 16 16 20 23 23 23 23 22 22 26 32 33 32 30 29 29 31 34 34
30 29 28 27 25 23 21 20 19 17 16 15 13 16 18 16 15 18 19 17 15 15 16 18 20 22 22 21 21 20 19 20 21 21 20 19 19 18 19 20 22 23 23 24 24 25 25 25 25 26 26 25 25 24 24 24 24 24 23 22 20 17 16 17 17 17 17 18 19 22 23 22 22 21 22 24 27 30 32 35 35 30 28 34 38
29 28 26 25 23 21 20 18 17 16 16 14 13 16 15 14 17 20 18 16 16 16 19 21 22 22 22 21 21 21 21 21 21 21 20 19 19 20 21 24 25 26 26 26 26 25 25 25 25 26 25 23 22 22 23 23 23 22 22 21 20 19 17 16 17 18 18 18 19 20 21 21 20 20 23 24 23 22 23 29 36 38 35 33 36
28 26 25 23 21 19 18 17 17 18 16 13 13 13 12 15 20 20 18 17 17 18 20 22 22 22 22 22 22 22 22 21 20 19 19 20 22 23 24 25 26 27 26 26 26 26 25 25 25 24 23 21 19 19 20 21 22 22 22 21 19 19 18 17 18 19 19 18 18 19 20 20 19 21 23 24 23 21 21 22 26 34 38 37 35
26 24 22 21 20 18 18 18 19 18 16 12 12 13 15 20 22 19 18 18 18 19 20 21 22 22 22 22 23 23 22 21 19 18 20 23 25 25 25 26 26 26 26 26 26 25 25 24 23 22 21 19 19 19 20 21 22 23 23 23 22 21 21 20 20 20 20 19 18 19 19 18 19 21 22 22 21 22 25 25 24 27 32 36 36
25 23 21 20 20 20 20 20 19 17 14 15 18 20 22 24 22 20 20 19 18 18 19 20 21 21 22 23 23 23 22 21 19 19 21 24 25 25 26 26 26 26 26 26 25 25 24 23 22 20 19 18 18 19 20 22 22 22 22 23 23 23 23 22 21 21 20 19 18 19 18 18 20 22 21 22 23 24 25 24 24 27 27 27 31
25 25 25 24 24 23 21 20 19 16 14 18 22 24 24 23 22 22 22 20 18 17 18 19 20 20 22 23 23 23 22 20 20 20 22 24 25 26 26 26 25 25 25 25 24 24 23 22 22 20 18 17 17 17 18 18 19 19 20 21 22 23 23 22 22 22 20 18 18 19 18 19 22 22 21 23 24 24 24 22 22 24 22 19 21
27 27 27 27 26 25 23 23 20 15 15 20 23 24 24 23 23 23 21 19 17 17 17 19 20 20 21 22 22 22 21 20 20 20 21 21 23 25 25 24 24 23 23 23 23 22 22 22 22 21 19 18 18 18 17 17 17 16 17 19 20 22 23 23 22 22 21 19 19 19 19 20 21 22 22 24 26 24 22 22 21 21 22 20 18
28 28 27 26 26 26 25 22 19 17 19 22 23 22 23 23 23 22 20 17 16 17 18 19 20 20 20 21 22 21 20 19 19 19 20 19 20 21 22 22 22 21 21 21 21 21 21 21 22 22 21 18 18 19 19 18 18 18 17 18 18 19 22 23 24 23 22 21 20 20 21 21 21 22 22 24 25 24 22 22 22 21 23 23 23
29 27 26 26 26 27 25 21 20 21 22 21 19 20 21 23 22 21 18 16 15 18 20 20 20 20 19 19 20 20 20 19 18 18 19 18 18 19 19 19 19 19 19 19 20 20 20 21 22 23 22 19 18 19 20 21 21 21 21 20 20 19 20 22 25 25 25 24 22 22 23 22 21 22 23 23 23 23 23 23 23 23 24 25 26
27 27 26 26 26 26 24 21 22 23 21 19 19 20 21 23 23 21 18 16 16 19 20 21 22 20 18 18 20 21 20 18 16 17 17 16 17 17 17 17 17 17 18 18 19 20 20 20 20 22 22 21 18 18 20 22 23 23 24 24 24 23 21 22 24 25 25 24 23 24 25 24 22 21 23 24 23 24 23 21 21 23 24 24 25
25 26 25 25 24 24 23 22 23 23 21 21 21 21 22 24 23 21 19 18 19 20 21 22 22 21 20 20 21 22 20 16 14 14 14 15 16 16 17 16 16 16 17 17 18 20 20 20 19 21 22 23 21 20 20 22 22 23 24 25 26 25 23 23 25 24 24 24 24 25 26 26 24 22 23 24 24 25 24 20 21 23 23 22 21
23 24 24 24 24 24 23 24 25 25 23 22 22 21 23 24 22 20 20 21 21 22 22 22 22 22 22 22 22 23 20 17 15 15 15 15 16 16 16 15 15 15 15 16 18 20 20 19 19 20 21 22 22 21 21 22 23 23 25 26 26 25 24 25 26 26 25 25 26 27 27 27 27 26 25 25 25 27 25 22 24 26 23 17 15
23 23 23 24 24 25 25 26 26 25 24 23 23 23 25 25 22 20 21 23 24 24 24 24 23 22 22 22 22 22 22 19 17 17 17 17 17 16 14 12 13 14 15 16 18 20 19 19 19 20 20 21 21 21 22 23 24 25 26 26 26 24 24 25 27 28 28 28 29 30 30 30 29 28 28 27 27 28 27 25 25 25 22 18 17
25 24 25 26 27 27 27 26 24 24 24 25 25 26 26 25 22 20 23 26 27 27 27 27 25 24 23 22 22 22 22 21 19 18 18 17 16 14 11 11 12 14 15 16 17 19 19 18 19 20 20 20 20 21 22 23 25 26 27 26 26 24 23 24 26 27 28 30 30 32 32 31 30 29 29 29 29 29 28 28 27 25 22 21 23
26 26 27 28 28 27 26 25 24 26 27 28 27 27 26 24 23 23 26 27 28 28 27 27 27 25 24 23 22 21 21 21 19 18 17 15 13 11 10 11 12 13 14 15 16 18 19 19 19 19 18 19 19 19 20 22 24 25 27 27 26 24 22 23 24 25 27 28 29 30 32 32 31 30 30 30 30 30 30 30 29 26 23 23 26
28 28 29 29 28 27 26 26 27 28 28 27 26 26 25 25 26 28 28 27 27 27 26 25 25 23 22 22 21 20 19 19 18 16 15 13 11 10 10 11 12 12 14 15 16 17 18 19 18 18 17 18 18 17 18 20 22 24 26 26 25 25 24 24 25 27 27 27 28 29 32 34 33 32 32 31 31 31 31 31 30 29 28 26 26
30 30 30 30 29 28 28 28 29 28 27 26 26 27 27 28 28 28 27 25 25 25 25 24 23 21 19 18 18 17 17 17 16 15 14 12 11 10 10 11 11 12 13 14 15 16 17 17 17 17 17 17 18 17 17 18 20 23 24 24 24 25 26 26 26 29 31 31 29 29 32 34 35 34 33 33 32 31 31 31 30 30 31 31 29
33 32 31 30 29 28 28 28 28 28 27 26 27 28 28 27 25 24 24 24 24 24 24 22 21 19 18 16 15 14 14 14 14 14 13 12 12 11 10 10 11 12 13 14 15 15 15 15 15 14 15 16 18 18 17 18 19 21 22 23 24 25 26 27 27 29 32 33 31 29 30 33 34 33 33 32 31 30 30 29 29 30 31 34 35
34 32 31 29 28 29 29 29 29 29 28 28 28 28 27 25 23 22 22 22 22 22 22 21 18 17 15 14 13 12 11 12 12 12 12 12 11 10 10 10 10 11 12 12 13 14 14 14 13 13 13 15 17 17 17 18 19 20 22 23 24 25 27 28 28 29 31 32 31 29 29 30 31 31 30 29 29 28 28 28 28 29 30 33 36
33 32 31 31 31 31 30 29 28 27 27 28 28 28 26 24 23 22 21 21 21 21 21 19 17 15 14 13 12 11 11 11 10 11 11 11 11 10 10 10 10 10 10 11 12 13 13 13 12 12 13 14 15 17 17 18 18 19 20 22 24 25 26 27 27 28 29 30 29 28 28 29 29 28 27 27 28 28 29 29 29 29 29 31 34
33 33 32 32 32 31 29 28 27 27 28 28 28 27 25 24 23 23 22 21 21 21 21 19 17 16 13 12 11 12 12 11 10 10 11 11 10 10 10 10 10 9 9 10 11 12 12 12 11 12 13 13 15 17 18 17 17 18 19 20 23 24 25 26 27 27 27 28 28 27 27 28 29 29 28 28 28 29 29 29 29 30 30 29 31
34 33 33 32 32 31 29 28 28 29 29 29 28 26 24 23 23 22 22 23 23 23 22 20 18 15 13 12 12 12 13 12 12 13 13 12 11 10 10 10 10 10 10 10 11 11 12 12 12 12 12 13 14 17 18 18 17 17 18 19 21 23 23 23 24 25 26 26 26 25 26 28 29 30 29 29 29 29 28 28 29 29 29 28 28
34 32 32 31 30 30 29 28 28 27 26 26 25 23 21 21 20 19 21 23 24 24 23 19 15 13 13 13 14 14 15 15 15 15 13 12 11 10 10 10 10 10 10 10 10 10 10 11 11 11 12 13 14 16 18 19 18 18 18 18 19 21 22 21 22 23 24 24 24 24 25 27 29 29 29 28 27 27 27 28 28 27 27 27 26
33 32 31 30 29 28 28 26 26 25 24 24 23 20 19 19 18 18 20 23 22 21 19 16 13 10 11 12 14 16 17 17 16 15 13 11 10 9 8 8 9 9 10 10 10 10 9 10 11 12 13 14 15 15 16 18 19 18 18 18 18 19 21 22 23 22 22 23 24 23 24 25 26 28 28 28 26 25 25 26 26 26 27 27 26
32 30 30 29 28 28 27 26 26 25 25 25 24 22 20 19 18 17 19 21 20 17 14 12 10 9 10 12 13 16 18 17 16 14 12 10 8 7 6 6 7 8 9 9 9 9 10 11 12 13 13 14 15 16 15 16 17 18 18 18 17 18 20 21 22 22 21 22 23 22 22 22 24 25 26 26 26 25 24 24 24 25 26 26 25
30 29 30 29 29 29 29 28 28 28 27 26 26 24 23 21 19 18 17 17 17 15 12 11 9 7 8 13 16 17 17 17 15 12 9 7 6 5 4 5 6 7 8 8 9 9 10 11 11 12 12 13 14 15 15 14 15 16 17 17 17 17 17 19 20 20 20 21 22 22 21 20 21 22 23 24 25 26 26 25 24 24 24 24 23
31 30 31 30 30 30 31 30 30 29 28 27 26 25 24 23 20 18 16 15 15 14 13 12 10 9 10 14 18 18 17 15 12 9 7 6 6 5 4 5 6 6 6 8 9 9 10 11 11 11 10 11 13 14 14 14 13 13 15 16 16 16 16 17 18 18 19 20 21 22 22 20 19 19 20 21 22 23 25 25 24 23 23 23 22
32 32 33 32 32 32 32 31 30 29 28 27 26 25 24 23 21 19 16 15 14 14 14 13 12 13 13 15 16 16 15 12 9 7 6 6 6 5 5 5 5 6 6 6 7 8 9 9 10 10 9 9 11 12 13 13 13 12 13 14 15 14 14 15 15 15 17 18 19 19 20 21 20 18 17 18 19 19 21 22 22 23 22 22 21
33 34 34 34 34 33 32 31 30 29 28 27 26 25 23 22 20 19 18 17 16 16 15 15 14 14 14 14 15 14 13 10 8 6 6 6 6 6 6 6 6 6 6 5 5 6 7 7 8 8 8 8 9 10 10 11 12 12 12 12 13 13 12 12 13 14 15 17 17 18 18 19 20 20 18 16 16 17 17 18 19 20 20 20 19
33 33 34 34 33 33 32 30 29 28 27 27 26 25 23 21 20 20 21 20 19 18 16 15 14 13 13 13 14 14 12 10 7 6 5 4 5 5 5 5 5 6 6 5 4 4 5 6 6 7 7 7 7 8 9 9 10 11 11 11 12 13 12 11 12 12 13 15 16 16 16 16 18 19 19 18 16 16 16 16 16 17 17 17 17
33 33 33 32 31 31 30 29 28 27 26 27 26 25 24 22 21 21 21 20 20 19 18 17 15 14 13 13 14 14 12 10 7 5 4 3 3 3 3 4 5 5 5 5 4 4 4 4 5 6 6 6 6 7 8 8 8 9 10 11 12 13 13 12 11 10 11 13 14 14 13 14 16 17 17 18 18 17 16 15 15 15 15 15 15
33 33 32 31 29 29 29 28 26 25 26 27 27 26 25 23 23 22 22 22 21 21 20 18 17 15 14 14 13 13 11 9 7 5 4 2 1 1 3 4 4 4 4 3 3 2 2 3 3 5 7 7 6 6 7 8 8 8 9 10 11 12 13 14 12 10 10 11 13 13 11 12 14 15 15 16 17 18 17 16 16 15 15 14 15
33 32 31 30 28 28 28 27 26 26 27 28 27 26 26 25 25 25 24 24 23 21 20 18 16 15 14 13 12 11 9 8 7 6 5 5 3 2 4 5 4 3 3 1 0 1 2 2 3 4 6 7 6 6 7 8 8 8 8 9 10 11 12 13 14 12 9 10 12 12 11 11 12 13 14 14 15 16 17 16 16 16 16 15 15
32 31 29 28 28 28 28 28 28 29 29 28 27 27 28 27 27 26 24 23 21 20 18 17 15 14 13 12 11 10 9 8 8 7 7 6 6 5 5 6 5 4 3 3 3 2 2 3 4 4 5 6 7 6 6 7 7 8 9 9 9 11 11 12 14 13 11 10 10 11 11 11 11 12 12 12 12 14 16 15 15 16 16 16 15
32 31 28 27 28 29 29 29 29 29 28 28 28 29 28 27 25 24 21 20 19 17 16 15 14 13 12 12 11 10 8 6 6 6 6 6 7 7 7 7 7 5 5 5 5 4 4 4 5 5 6 7 7 7 7 7 7 8 9 9 10 11 11 12 13 13 12 11 11 10 10 11 11 11 11 11 11 11 13 14 14 14 15 15 14
32 30 28 28 29 31 30 30 29 28 28 28 28 28 27 24 22 20 19 17 16 16 15 14 13 12 12 13 13 11 9 6 5 5 5 6 6 6 6 8 9 8 7 7 7 6 5 5 5 6 7 7 8 8 8 8 8 8 9 10 10 11 11 12 13 13 13 13 12 11 11 11 11 11 10 11 10 10 11 12 13 13 13 13 13
31 30 30 30 31 31 31 30 29 28 27 27 26 25 23 21 19 18 17 16 15 15 14 12 10 9 12 15 14 13 11 8 6 4 5 6 6 5 5 7 9 10 9 9 9 8 7 7 7 7 8 8 9 9 9 9 9 9 9 10 10 11 12 12 12 13 14 14 13 13 11 11 11 11 11 12 12 12 12 12 13 13 12 11 11
31 31 32 32 32 32 31 30 29 28 26 25 23 22 21 20 19 18 17 17 16 15 14 10 6 5 9 14 15 13 12 9 7 4 4 6 7 7 7 8 9 9 9 9 9 9 9 9 8 8 8 9 9 10 10 9 9 9 9 9 10 10 10 11 12 13 13 14 14 14 14 12 11 12 12 13 14 15 14 14 14 14 13 11 11
31 32 32 32 32 32 31 30 29 28 25 22 20 20 20 19 19 18 16 16 15 13 11 9 7 5 7 11 14 14 12 11 9 7 6 7 8 9 9 9 9 9 9 9 9 11 12 12 10 10 9 10 10 10 10 10 10 10 10 10 10 10 9 9 10 11 13 13 13 14 15 15 14 13 14 15 15 16 16 16 15 14 13 12 12
29 30 30 31 31 30 30 29 26 24 23 22 20 20 19 17 15 15 14 14 14 13 11 10 9 8 8 10 13 14 13 12 11 10 9 9 9 9 10 10 11 11 10 11 11 12 14 14 13 13 12 12 12 11 11 11 11 12 12 12 13 12 11 10 9 10 12 13 13 13 14 15 16 16 16 16 16 16 17 17 16 15 15 14 14
26 29 30 30 29 28 27 24 21 20 21 22 21 20 18 15 13 13 14 14 14 13 12 11 11 10 10 11 13 14 14 14 13 13 12 12 12 12 11 11 11 11 12 13 14 15 16 16 16 16 16 15 15 14 14 13 14 14 14 15 15 15 15 14 13 13 13 14 14 14 15 16 17 17 18 19 18 18 19 18 18 17 17 17 17
27 30 29 28 27 25 23 20 18 19 21 21 20 20 19 16 14 13 14 14 13 12 12 12 12 12 12 13 13 13 14 14 14 14 13 13 14 14 14 13 13 13 14 15 16 17 18 18 18 18 19 19 19 19 18 18 18 17 17 17 18 19 19 18 18 18 17 16 16 17 17 18 19 19 19 20 20 20 21 20 20 20 19 19 20
29 29 28 26 26 24 21 19 20 21 20 18 16 18 19 18 16 14 13 13 13 12 12 13 13 13 13 13 12 12 13 13 14 14 14 13 14 15 15 15 15 15 16 17 18 19 19 20 20 21 21 21 22 22 22 22 22 21 21 21 22 23 23 23 22 22 22 21 21 21 21 22 22 22 23 23 22 23 23 23 23 23 22 22 22
27 26 24 23 24 25 22 19 20 21 19 16 16 17 18 18 18 17 16 16 16 15 15 15 14 14 14 14 13 13 13 14 14 15 14 13 13 14 14 15 15 16 17 17 16 16 17 19 21 22 23 23 24 25 27 28 27 26 26 27 27 27 27 27 27 27 27 26 26 26 26 26 27 27 27 27 26 27 26 26 26 26 25 25 25
26 25 23 22 24 25 22 19 19 20 19 18 18 18 18 18 17 16 17 17 17 16 16 16 16 16 16 16 15 15 15 15 14 11 9 7 6 6 7 8 9 10 10 10 10 10 11 13 15 17 20 22 24 26 27 28 28 28 29 29 30 31 32 31 31 31 30 29 29 29 29 30 31 31 32 32 31 31 31 31 31 30 29 29 30
26 25 23 23 24 24 21 19 20 22 21 19 20 20 19 18 18 17 16 17 17 17 16 15 15 16 16 16 15 14 12 9 6 3 2 3 3 3 4 4 6 7 7 7 8 9 11 11 11 12 14 17 18 19 20 20 21 22 24 25 27 29 30 31 30 30 30 30 29 29 30 31 32 33 35 36 36 36 36 35 35 35 34 34 34
Wind_Direction
140 140 139 141 142 142 142 143 144 143 142 141 136 130 129 129 128 127 123 122 123 118 112 111 112 111 109 104 103 104 100 95 89 84 81 78 75 73 75 74 68 68 70 69 66 56 44 38 31 26 23 22 22 23 22 20 19 16 11 3 357 358 351 334 327 330 329 334 339 337 341 343 341 345 342 334 333 333 330 329 327 327 326 323 320
137 138 138 139 139 138 139 139 139 139 136 134 130 127 126 126 128 127 122 120 120 116 113 114 112 108 104 105 111 112 108 100 93 89 86 80 76 77 79 77 73 73 73 70 62 50 40 34 30 28 27 27 28 27 25 23 21 18 14 9 1 1 0 343 331 328 325 331 339 340 343 345 343 345 344 337 337 337 335 333 331 330 330 328 324
137 138 138 136 135 134 134 133 133 132 128 125 125 125 126 128 128 127 124 119 116 115 116 113 106 103 107 111 116 117 113 105 98 94 91 85 82 81 77 74 73 73 71 67 59 49 42 37 33 32 32 33 32 30 29 26 24 21 16 14 9 6 9 358 340 332 326 329 336 338 339 340 340 342 341 336 337 338 337 335 334 333 333 333 330
136 135 133 131 131 130 128 127 127 124 120 119 118 118 128 133 128 125 125 120 115 113 110 104 101 107 113 114 115 115 113 106 100 96 93 90 86 79 73 70 71 71 69 65 58 50 45 42 37 34 35 35 33 31 31 29 27 25 20 19 19 15 13 8 352 342 333 327 329 334 335 333 334 337 338 337 337 337 335 334 333 333 334 334 333
132 131 129 128 128 128 127 126 124 120 118 119 116 117 127 132 128 124 123 118 111 106 104 105 107 109 112 114 115 114 112 107 102 99 96 92 85 76 72 73 73 73 71 66 61 55 50 46 40 37 35 34 33 32 32 32 30 27 24 21 21 18 13 6 356 349 341 330 326 330 332 331 330 333 338 339 337 335 334 332 332 332 332 332 332
128 127 127 125 125 126 126 127 124 120 120 123 126 131 133 130 128 127 123 114 106 103 107 110 108 107 108 112 114 113 111 108 105 102 98 91 82 75 76 79 80 78 75 70 64 58 53 49 44 40 37 34 33 32 32 34 32 28 26 24 22 19 11 3 359 353 345 336 330 329 331 331 329 330 336 340 337 334 333 332 331 331 332 332 331
127 126 126 124 124 125 127 128 126 124 126 130 138 145 142 132 128 127 122 113 108 108 111 111 107 106 108 110 112 113 111 109 106 102 95 87 82 81 83 85 84 80 75 70 65 61 56 52 47 43 40 36 33 32 32 33 34 32 28 25 22 19 11 1 358 354 348 341 336 334 332 331 330 329 331 334 333 331 333 333 329 328 330 330 327
125 124 124 124 125 128 130 130 130 133 139 140 143 150 148 137 130 125 116 109 109 111 114 112 108 107 108 109 113 115 113 108 102 95 90 87 86 86 88 88 85 79 75 69 65 62 58 54 50 47 43 41 39 38 36 35 35 35 31 25 20 15 10 3 357 354 350 343 340 339 335 332 332 329 329 333 334 332 334 333 324 321 324 324 322
129 129 128 127 127 129 131 132 134 141 146 140 138 147 144 135 129 120 109 106 108 113 115 114 112 110 109 110 114 115 111 104 97 92 92 90 87 88 90 89 83 78 74 69 64 60 57 54 53 51 50 50 51 52 51 48 44 40 35 30 24 17 11 5 359 355 350 345 343 342 339 336 335 332 331 333 334 330 329 329 322 319 320 319 318
140 139 138 136 136 135 134 135 139 144 141 130 131 136 135 131 124 114 108 106 109 114 116 114 113 112 110 112 114 112 107 100 94 95 98 93 89 90 91 86 81 77 72 67 63 58 55 52 50 52 54 55 55 55 55 55 52 48 44 39 34 28 20 12 5 359 351 346 343 342 341 338 336 334 331 331 332 329 328 328 323 321 322 318 317
143 144 144 145 145 142 139 144 150 149 136 129 130 131 130 126 120 115 111 108 110 116 118 116 114 111 111 112 112 110 105 97 94 99 103 96 89 90 89 83 78 73 68 63 59 55 53 50 48 48 50 51 49 47 46 46 45 44 42 41 38 34 29 22 15 7 358 349 345 343 341 336 334 335 333 332 333 330 327 325 322 320 322 320 317
145 146 147 148 146 142 142 150 157 154 140 133 130 128 127 125 122 118 113 110 111 115 119 119 115 112 111 112 113 112 106 99 97 102 105 100 91 87 85 80 75 70 65 60 55 50 49 48 46 46 48 49 46 41 38 35 33 30 29 31 32 32 30 27 22 16 8 359 351 348 343 337 335 336 336 335 334 331 328 325 322 318 315 313 309
146 146 148 149 146 144 146 151 155 152 144 136 131 128 127 127 125 121 115 112 111 114 120 122 117 115 114 114 116 116 110 105 104 105 106 103 95 87 82 77 74 69 63 57 51 47 45 45 46 46 48 50 48 43 37 31 28 26 23 21 22 23 24 23 21 18 14 8 0 353 348 343 339 337 339 341 337 334 332 327 324 321 315 312 306
148 149 150 151 149 148 150 151 149 147 146 143 139 134 129 128 128 124 119 116 114 117 121 122 119 117 115 116 120 120 115 111 112 112 110 105 98 90 81 76 73 68 62 55 49 45 42 42 44 45 46 50 49 45 40 35 31 29 26 23 20 17 16 16 16 14 12 11 6 360 357 353 348 344 345 347 344 338 334 329 327 324 317 311 306
150 152 151 152 152 152 152 152 149 148 150 152 149 140 132 129 128 123 118 116 117 121 123 122 119 116 115 119 125 125 122 119 120 123 121 112 103 94 84 78 75 68 60 52 46 44 43 44 45 46 48 50 49 46 42 37 33 31 31 30 27 25 21 17 16 13 10 11 8 4 4 3 359 357 355 354 351 346 339 333 330 328 321 318 317
153 154 154 156 156 155 156 157 154 153 154 154 150 141 134 131 128 122 117 115 118 122 122 122 120 116 115 122 126 125 124 123 122 126 130 123 109 96 88 84 77 66 56 50 48 47 47 48 49 49 51 51 49 48 44 37 32 32 34 34 33 33 31 26 24 21 17 16 14 9 8 8 8 8 4 2 360 355 350 344 343 341 335 331 328
157 158 159 160 160 161 163 161 158 156 156 154 149 142 138 135 132 127 120 117 119 121 122 122 121 118 117 119 121 120 119 120 117 115 123 126 113 99 92 86 73 60 54 53 53 53 52 52 54 54 54 52 49 46 42 37 35 36 37 37 36 35 32 29 28 27 25 23 20 16 12 10 11 12 11 10 8 5 2 359 356 353 348 341 330
164 164 164 165 165 166 166 163 160 158 157 155 152 147 143 141 138 133 125 119 117 117 119 120 120 119 117 116 116 114 112 117 119 114 113 116 112 103 95 83 69 61 60 60 58 57 58 58 58 58 57 54 50 46 42 39 38 39 38 37 36 34 31 27 25 24 24 24 22 19 16 13 12 13 14 15 15 14 13 9 5 1 355 350 338
170 168 167 167 165 164 164 164 163 160 157 157 155 150 147 145 142 137 128 121 116 113 113 114 114 115 114 114 114 113 110 111 116 117 116 115 114 110 99 85 73 63 61 64 62 60 61 61 62 61 58 56 53 48 44 42 41 40 39 37 35 32 29 25 22 20 20 21 20 17 15 15 14 14 16 18 18 19 19 16 13 7 357 350 344
170 167 166 164 163 164 165 166 165 160 155 153 152 151 150 148 144 138 131 124 118 114 111 109 108 109 112 113 113 114 113 112 112 116 120 119 117 113 100 85 71 60 60 65 65 62 61 61 63 62 59 55 53 49 46 44 43 42 40 38 34 31 28 24 19 17 16 17 19 17 14 14 15 16 19 20 20 21 21 21 20 15 8 357 350
168 165 163 163 163 164 163 160 159 156 153 151 151 152 151 148 142 137 133 128 123 118 114 111 110 108 109 112 112 113 115 116 115 118 121 120 117 112 99 82 67 62 67 71 69 65 63 62 62 62 59 53 49 49 47 44 43 43 41 40 37 35 32 26 21 20 17 16 17 17 15 16 16 17 19 20 21 23 23 23 23 23 22 14 1
166 163 161 160 161 160 158 155 155 154 152 150 148 147 146 144 141 139 137 134 129 123 119 116 114 112 110 110 111 112 115 118 118 119 119 118 115 110 97 80 68 69 76 78 74 69 65 64 64 62 58 52 49 50 49 44 43 42 41 41 40 37 35 32 29 27 25 22 21 18 16 16 16 17 19 20 22 23 23 24 25 28 30 30 23
161 159 158 158 159 160 159 158 157 157 156 153 150 149 148 148 147 147 145 141 135 131 127 122 117 115 113 112 113 115 119 122 122 120 118 114 113 108 95 79 70 74 80 81 77 73 69 67 65 63 60 55 51 51 50 47 44 42 42 42 40 39 38 36 35 33 30 28 27 23 19 18 17 17 19 20 23 25 25 25 26 29 33 36 36
158 158 158 158 159 160 161 160 160 161 161 161 158 157 157 157 157 156 153 149 145 140 136 132 126 123 121 119 120 122 126 131 130 127 122 116 113 107 92 82 79 79 84 87 83 77 72 68 64 62 62 60 54 51 51 50 46 43 43 42 40 40 39 38 37 36 32 30 28 27 24 22 21 21 22 24 28 30 30 30 30 31 35 38 39
155 155 156 156 156 157 160 161 162 164 167 167 165 163 163 162 163 164 162 159 155 149 147 145 142 139 136 132 131 134 138 140 139 135 131 123 114 105 93 88 86 84 88 94 89 80 74 70 66 62 62 61 55 50 50 51 49 45 44 42 39 37 37 37 38 37 34 31 30 29 28 25 25 27 30 32 34 35 34 33 33 34 37 39 41
151 151 151 152 153 155 156 157 160 163 166 168 166 165 166 168 171 172 172 169 164 158 156 154 150 147 144 140 140 144 147 147 141 136 135 129 115 105 98 93 88 87 95 102 95 84 76 72 68 64 62 60 55 49 48 50 51 48 45 42 38 36 36 36 36 36 35 33 33 33 31 29 29 32 35 36 36 36 34 32 31 32 34 35 37
149 149 149 150 152 154 154 154 156 159 162 164 165 167 170 174 175 175 173 171 166 162 159 155 151 149 145 142 143 145 146 144 138 133 131 125 114 106 101 95 89 90 101 106 99 88 78 72 69 66 63 60 56 51 48 48 49 49 46 42 39 38 38 37 37 37 36 35 37 38 35 32 32 33 35 36 37 37 37 35 34 32 32 33 33
150 149 150 152 154 156 157 158 159 160 162 165 167 169 173 177 178 177 173 169 165 162 160 157 153 149 146 145 144 142 139 137 133 130 126 119 111 106 98 90 81 81 92 101 99 92 82 74 71 66 61 56 53 50 49 47 46 46 45 42 40 39 39 40 40 40 37 37 40 40 36 35 35 34 34 36 37 37 37 38 38 36 35 36 34
151 152 154 156 157 158 160 162 163 162 161 161 163 165 168 173 178 178 177 176 173 169 164 159 152 144 143 146 146 141 138 136 132 128 123 116 109 101 91 83 75 74 84 95 96 89 79 72 68 63 57 52 48 48 49 47 44 42 41 40 39 38 38 40 41 39 36 35 38 39 38 36 35 35 34 36 36 36 36 37 38 38 39 39 37
153 156 158 159 159 160 160 160 161 161 159 157 154 150 148 151 155 159 165 172 175 174 167 157 147 138 140 145 143 137 135 134 131 127 123 114 103 89 77 76 78 79 84 91 93 84 73 68 67 62 57 52 48 46 46 46 44 41 38 37 37 37 37 39 40 40 38 36 36 37 38 36 35 34 34 35 35 35 36 37 37 38 39 40 38
156 159 161 161 161 160 158 156 156 156 155 153 149 142 136 133 136 140 146 155 162 164 161 151 142 141 146 145 140 136 134 132 130 126 120 108 91 78 75 86 97 97 90 87 88 83 72 66 66 63 58 54 49 44 41 42 43 41 36 34 35 36 35 35 37 37 38 38 38 37 36 36 35 34 33 35 36 36 37 39 38 39 40 41 39
159 160 162 162 161 160 158 155 155 154 152 151 149 145 138 131 127 130 136 144 151 155 155 149 143 143 145 143 140 138 136 133 130 124 112 96 83 88 103 107 108 111 104 90 83 81 74 66 64 63 58 55 51 44 39 38 39 38 35 32 32 33 32 33 34 34 35 36 37 36 36 36 35 33 32 34 35 35 35 37 37 39 40 41 42
163 161 162 161 160 160 158 157 157 156 155 154 153 152 149 143 136 133 135 140 145 147 147 146 145 144 145 145 145 144 141 138 133 124 107 91 84 96 116 115 100 98 104 98 86 81 78 70 63 60 57 55 51 44 40 38 34 31 32 32 31 30 30 31 33 35 34 34 34 34 35 35 34 32 30 30 30 30 31 32 33 36 38 39 41
166 164 164 163 162 162 162 161 161 161 161 161 160 160 160 158 153 148 146 146 147 147 146 146 148 149 149 151 153 153 150 146 139 126 109 92 86 96 117 121 99 83 85 94 94 86 78 68 62 58 53 52 49 41 38 36 32 29 30 30 29 27 27 29 32 34 33 31 30 30 31 31 31 32 30 27 23 22 22 24 26 29 33 35 37
168 166 166 166 165 164 166 166 167 166 167 168 168 167 165 165 163 160 157 154 152 151 150 150 151 151 152 155 158 159 157 153 148 138 121 107 100 104 117 120 106 86 75 73 87 94 77 61 56 50 42 42 42 37 31 28 27 27 26 24 23 21 20 21 25 27 28 28 26 25 26 27 28 30 30 29 26 20 14 12 13 16 22 26 29
168 167 168 170 170 170 171 172 173 174 174 174 173 171 168 167 165 162 159 156 153 150 148 147 146 146 147 151 155 159 160 161 162 159 147 131 119 119 129 130 120 105 85 67 70 90 84 59 48 39 28 24 26 25 22 21 21 23 22 20 18 16 15 15 14 14 18 21 22 22 25 26 26 27 26 27 28 27 21 15 11 8 7 9 14
170 170 170 173 175 176 176 176 176 178 177 175 172 169 167 165 163 159 156 154 151 149 148 149 149 150 151 151 152 158 163 169 177 187 196 202 183 141 156 158 142 124 111 85 68 71 68 51 40 30 19 15 16 14 12 13 14 13 12 12 10 9 10 11 9 6 6 10 14 18 24 25 24 23 21 20 21 24 24 25 25 22 15 9 9
173 174 174 177 179 178 177 176 176 175 173 171 169 166 164 161 159 157 155 154 154 154 156 158 162 164 163 162 163 168 175 184 192 196 206 220 225 199 181 180 169 146 141 159 188 351 1 4 2 359 0 4 9 7 6 9 8 1 358 0 0 358 359 3 6 6 1 360 6 14 19 20 16 15 14 14 14 15 16 18 21 24 25 25 23
176 176 178 180 181 179 176 174 172 171 169 168 166 164 162 161 160 160 160 161 163 165 167 171 176 177 174 173 179 187 195 204 208 204 204 214 219 212 200 198 193 185 191 212 231 266 306 325 329 329 336 345 350 349 348 354 355 350 346 347 348 349 349 352 358 2 360 355 355 359 4 9 11 10 10 9 9 9 9 11 14 16 18 20 23
175 177 180 181 180 177 175 173 171 171 170 168 167 166 165 166 167 168 169 171 175 178 183 189 194 194 189 188 193 199 206 215 224 222 215 216 222 224 222 218 216 220 230 234 239 256 285 308 316 317 323 334 341 341 337 335 334 333 332 330 332 336 338 338 341 346 350 350 349 346 346 352 356 358 2 6 7 5 3 3 7 10 10 9 10
175 176 179 179 176 175 174 174 173 173 172 170 170 171 173 175 177 179 182 187 192 195 201 210 218 218 211 206 206 212 222 235 247 244 229 219 222 231 234 230 229 236 246 248 245 256 276 292 302 309 315 323 332 336 335 332 328 324 322 319 317 318 321 324 326 328 329 332 336 340 343 344 342 341 344 351 355 354 352 353 355 356 358 0 359
176 177 178 178 177 178 179 179 178 177 177 178 179 181 183 186 189 193 196 199 203 206 211 219 230 229 220 215 214 219 231 245 258 256 237 225 225 238 247 245 243 247 252 254 253 259 272 281 289 302 311 315 319 325 329 331 329 326 323 321 318 314 311 311 314 317 317 316 317 321 329 336 339 336 333 332 333 332 331 335 338 339 341 346 348
179 180 181 182 182 183 184 184 184 185 186 186 188 191 194 195 196 198 200 202 206 208 209 212 217 214 210 212 213 218 231 245 253 250 232 223 227 239 252 257 254 249 250 256 258 258 265 273 281 293 305 310 312 315 319 320 319 318 318 319 322 323 318 310 305 306 308 308 307 306 308 314 322 326 326 325 326 324 321 320 323 325 326 327 329
181 184 186 187 189 190 191 192 193 194 194 194 193 193 193 193 194 195 197 200 204 205 206 210 218 220 214 212 215 221 234 245 247 241 232 229 235 245 253 255 253 248 250 259 262 258 260 266 272 280 294 304 306 309 312 309 305 305 308 309 310 314 318 316 310 304 302 304 304 301 299 299 303 307 312 316 319 320 318 315 314 315 316 316 315
182 184 184 184 184 185 186 187 191 193 192 189 187 185 185 189 194 195 196 199 203 206 211 218 224 227 224 220 222 230 240 249 251 249 243 241 247 255 257 255 253 252 255 262 264 260 261 264 267 272 282 293 298 302 305 305 301 299 298 298 298 300 301 306 309 305 301 301 304 302 298 295 296 298 301 305 309 311 313 312 309 307 307 307 307
182 180 178 176 176 176 176 179 184 188 187 186 188 189 190 194 197 196 195 198 203 211 220 226 226 229 235 238 240 243 247 252 257 258 255 253 255 259 261 260 257 257 260 263 265 265 265 265 266 269 277 285 291 293 295 298 299 298 295 293 294 295 296 297 298 299 298 300 302 302 297 294 294 296 298 299 301 302 304 305 304 301 300 300 299
182 178 177 177 178 179 180 182 185 189 189 191 194 196 196 198 199 197 198 205 213 222 229 233 234 238 242 244 246 248 250 256 264 271 274 271 265 262 261 262 263 266 269 269 268 268 268 267 266 269 275 282 288 290 291 293 295 295 294 294 293 294 296 296 294 294 295 296 297 297 295 292 292 294 295 295 296 296 297 299 299 298 296 295 294
180 177 177 180 182 184 184 183 186 189 190 191 195 200 203 206 206 203 203 210 218 223 227 232 238 241 241 242 248 254 259 264 271 278 280 277 270 265 264 264 265 269 274 277 277 275 273 271 271 273 277 282 287 290 292 293 294 294 295 297 297 298 299 299 296 295 295 293 292 292 292 290 290 291 291 291 291 291 292 294 295 294 293 293 292
180 178 179 185 190 190 188 187 190 192 190 187 190 197 202 207 211 214 216 221 226 231 234 237 242 244 244 248 257 265 271 275 278 280 281 280 278 277 275 273 272 275 281 287 290 289 284 279 278 279 281 285 289 292 292 292 291 291 292 295 296 297 297 297 296 297 296 295 293 292 291 289 289 289 289 289 289 289 289 289 290 291 290 289 289
184 183 186 191 193 193 192 194 196 196 195 196 199 202 205 209 215 219 222 225 231 236 238 240 244 246 245 250 260 269 277 281 282 281 283 288 293 294 292 290 293 298 301 304 307 309 307 302 296 292 291 291 292 292 292 290 289 288 288 290 291 292 292 292 292 293 293 293 291 290 288 287 287 287 287 287 286 286 285 286 287 287 286 286 286
185 187 191 194 195 195 199 204 205 202 201 205 210 213 215 216 217 219 224 230 236 240 241 242 244 245 246 255 268 275 279 282 281 282 312 339 344 340 330 322 321 321 321 319 320 325 328 327 319 308 301 296 293 292 292 292 290 289 288 288 289 289 289 290 290 289 289 289 288 287 285 284 282 282 284 285 285 285 285 285 285 285 284 283 283